Location: Morning Glory
(31.5701°N, 106.2158°W)
Time: 22:49:58
(UTC+00:00)

Tiangong - Visible Passes

Search period start: 26 November 2022 00:00
Search period end: 06 December 2022 00:00
Orbit: 387 x 394 km, 41.5° (Epoch: 26 November)

Date Brightness Start Highest point End Pass type
(mag) Time Alt. Az. Time Alt. Az. Time Alt. Az.
26 Nov 1.2 02:19:37 10° SW 02:19:56 12° SW 02:19:56 12° SW visible
27 Nov -1.3 01:22:10 10° SSW 01:25:08 36° SE 01:25:15 36° SE visible
28 Nov -0.2 00:25:10 10° S 00:27:31 19° SE 00:29:51 10° E visible
28 Nov 0.1 02:01:10 10° WSW 02:02:50 26° W 02:02:50 26° W visible
29 Nov -2.2 01:03:17 10° WSW 01:06:28 87° SSE 01:07:57 29° ENE visible
30 Nov -0.4 01:42:55 10° W 01:45:20 27° NW 01:45:20 27° NW visible
01 Dec -1.3 00:44:42 10° W 00:47:46 44° NNW 00:50:17 14° NE visible
02 Dec -0.1 01:24:44 10° WNW 01:27:07 19° NNW 01:27:30 19° N visible
03 Dec -0.5 00:26:17 10° WNW 00:29:01 26° NNW 00:31:46 10° NE visible
04 Dec 0.1 01:06:29 10° NW 01:08:27 15° N 01:09:26 14° NNE visible
05 Dec 0.7 01:46:08 10° NNW 01:46:31 11° NNW 01:46:31 11° NNW visible
